User: anonymous
Location: Fremont
(37.5480°N, 121.9880°W)
Time: 04:45:54
(UTC-07:00)
Language:

Cosmos 1766 - Orbit

View from above orbital plane
View from above orbital plane
View from above satellite
View from above satellite

Ground track
Ground track

The orbit data is extracted from the following two-line orbital elements,

1 16881U 86055A   14203.80630263  .00000310  00000-0  19403-4 0  9159
2 16881 082.5130 338.4212 0014070 100.0626 260.2189 15.05699996521561
Epoch (UTC): 22 July 2014 19:21:04
Eccentricity: 0.0014070
inclination: 82.5130°
perigee height: 539 km
apogee height: 559 km
right ascension of ascending node: 338.4212°
argument of perigee: 100.0626°
revolutions per day: 15.05699996
mean anomaly at epoch: 260.2189°
orbit number at epoch: 52156

The dashed part of the orbit path shows where the satellite is in the earth's shadow,  

DLR